| time (UTC) | temp F | wind direction | speed MPH | gust MPH | rain 1hr in | rain 24hr in | rain mn in | humidity % | barometer mb |
| 20260507005529 | 44 | 0.0 | 0.0 | 0.03 | 1.53 | 1.52 | 99 | 1009.6 | |
| 20260507004526 | 44 | 69 | 2.0 | 2.0 | 0.04 | 1.52 | 1.51 | 99 | 1009.6 |
| 20260507003522 | 43 | 57 | 2.0 | 3.0 | 0.05 | 1.51 | 1.50 | 99 | 1009.4 |
| 20260507002518 | 43 | 28 | 2.0 | 6.0 | 0.06 | 1.51 | 1.50 | 99 | 1009.3 |
| 20260507001535 | 44 | 13 | 1.0 | 2.0 | 0.06 | 1.51 | 1.50 | 99 | 1009.0 |
| 20260507000531 | 43 | 33 | 3.0 | 4.0 | 0.07 | 1.51 | 1.50 | 99 | 1008.8 |
| 20260506235528 | 43 | 51 | 3.0 | 4.0 | 0.06 | 1.50 | 1.49 | 99 | 1008.6 |
| 20260506234524 | 43 | 50 | 2.0 | 4.0 | 0.04 | 1.48 | 1.47 | 99 | 1008.4 |
| 20260506233520 | 43 | 57 | 2.0 | 4.0 | 0.03 | 1.46 | 1.45 | 99 | 1008.5 |
| 20260506232516 | 43 | 23 | 3.0 | 4.0 | 0.03 | 1.45 | 1.44 | 99 | 1008.4 |
| 20260506231611 | 43 | 42 | 4.0 | 8.0 | 0.03 | 1.45 | 1.44 | 99 | 1008.0 |
| 20260506230527 | 43 | 31 | 3.0 | 7.0 | 0.03 | 1.44 | 1.43 | 99 | 1007.9 |
| 20260506225523 | 43 | 17 | 2.0 | 6.0 | 0.03 | 1.44 | 1.43 | 99 | 1007.9 |
| 20260506224520 | 43 | 15 | 3.0 | 6.0 | 0.03 | 1.44 | 1.43 | 99 | 1007.7 |
| 20260506223516 | 43 | 33 | 5.0 | 11.0 | 0.02 | 1.43 | 1.42 | 99 | 1007.6 |
| 20260506222553 | 44 | 1 | 3.0 | 6.0 | 0.02 | 1.42 | 1.41 | 99 | 1007.7 |
| 20260506221528 | 44 | 29 | 2.0 | 4.0 | 0.03 | 1.42 | 1.41 | 99 | 1007.4 |
| 20260506220523 | 44 | 27 | 3.0 | 8.0 | 0.02 | 1.41 | 1.40 | 99 | 1007.2 |
| 20260506215520 | 44 | 22 | 3.0 | 9.0 | 0.03 | 1.41 | 1.40 | 99 | 1007.0 |
| 20260506214516 | 44 | 36 | 4.0 | 6.0 | 0.03 | 1.41 | 1.40 | 99 | 1006.8 |
| 20260506213553 | 45 | 35 | 2.0 | 4.0 | 0.03 | 1.41 | 1.40 | 99 | 1006.7 |
| 20260506212528 | 45 | 35 | 4.0 | 8.0 | 0.02 | 1.40 | 1.39 | 99 | 1006.7 |
| 20260506211524 | 44 | 23 | 4.0 | 8.0 | 0.01 | 1.39 | 1.38 | 99 | 1006.8 |
| 20260506210541 | 45 | 23 | 3.0 | 7.0 | 0.02 | 1.39 | 1.38 | 99 | 1006.6 |
| 20260506205517 | 44 | 32 | 4.0 | 10.0 | 0.01 | 1.38 | 1.37 | 99 | 1006.5 |
| 20260506204532 | 45 | 23 | 4.0 | 7.0 | 0.02 | 1.38 | 1.37 | 99 | 1006.6 |
| 20260506203608 | 44 | 28 | 4.0 | 7.0 | 0.05 | 1.38 | 1.37 | 99 | 1006.4 |
| 20260506202524 | 44 | 31 | 3.0 | 6.0 | 0.06 | 1.38 | 1.37 | 99 | 1006.6 |
| 20260506201520 | 44 | 36 | 3.0 | 6.0 | 0.08 | 1.38 | 1.37 | 99 | 1006.6 |
| 20260506200517 | 44 | 21 | 2.0 | 6.0 | 0.10 | 1.37 | 1.36 | 99 | 1006.7 |
| 20260506195532 | 44 | 41 | 3.0 | 4.0 | 0.13 | 1.38 | 1.36 | 99 | 1006.8 |
| 20260506194528 | 44 | 32 | 2.0 | 7.0 | 0.16 | 1.42 | 1.35 | 99 | 1006.9 |
| 20260506193525 | 44 | 44 | 5.0 | 8.0 | 0.16 | 1.43 | 1.32 | 99 | 1006.8 |
| 20260506192520 | 44 | 34 | 3.0 | 6.0 | 0.17 | 1.42 | 1.31 | 99 | 1006.9 |
| 20260506191516 | 44 | 44 | 3.0 | 8.0 | 0.18 | 1.40 | 1.29 | 99 | 1006.8 |
| 20260506190532 | 44 | 35 | 4.0 | 9.0 | 0.20 | 1.37 | 1.26 | 99 | 1007.0 |
| 20260506185548 | 44 | 50 | 4.0 | 10.0 | 0.21 | 1.34 | 1.23 | 99 | 1006.8 |
| 20260506184524 | 44 | 48 | 6.0 | 11.0 | 0.20 | 1.30 | 1.19 | 99 | 1006.6 |
| 20260506183520 | 44 | 56 | 4.0 | 6.0 | 0.24 | 1.27 | 1.16 | 99 | 1007.0 |
| 20260506182517 | 44 | 50 | 7.0 | 14.0 | 0.28 | 1.25 | 1.14 | 99 | 1006.7 |
| 20260506181533 | 44 | 36 | 6.0 | 13.0 | 0.27 | 1.22 | 1.11 | 99 | 1006.8 |
| 20260506180530 | 45 | 45 | 7.0 | 11.0 | 0.25 | 1.17 | 1.06 | 99 | 1006.7 |
| 20260506175526 | 45 | 39 | 6.0 | 11.0 | 0.23 | 1.13 | 1.02 | 99 | 1006.6 |
| 20260506174522 | 45 | 43 | 3.0 | 7.0 | 0.22 | 1.10 | 0.99 | 99 | 1007.0 |
| 20260506173538 | 45 | 38 | 5.0 | 9.0 | 0.18 | 1.03 | 0.92 | 99 | 1006.4 |
| 20260506172534 | 46 | 40 | 6.0 | 9.0 | 0.15 | 0.97 | 0.86 | 99 | 1006.3 |
| 20260506171531 | 46 | 36 | 4.0 | 7.0 | 0.15 | 0.95 | 0.84 | 99 | 1006.8 |
| 20260506170527 | 46 | 45 | 4.0 | 7.0 | 0.16 | 0.92 | 0.81 | 99 | 1007.0 |
| 20260506165523 | 46 | 43 | 4.0 | 7.0 | 0.16 | 0.90 | 0.79 | 99 | 1007.3 |
| 20260506164519 | 46 | 69 | 3.0 | 7.0 | 0.17 | 0.88 | 0.77 | 99 | 1007.2 |
| 20260506163535 | 46 | 37 | 3.0 | 7.0 | 0.20 | 0.85 | 0.74 | 99 | 1007.4 |
| 20260506162551 | 46 | 30 | 2.0 | 8.0 | 0.21 | 0.82 | 0.71 | 99 | 1007.2 |
| 20260506161527 | 46 | 39 | 4.0 | 8.0 | 0.22 | 0.80 | 0.69 | 99 | 1007.2 |
| 20260506160524 | 46 | 37 | 4.0 | 8.0 | 0.22 | 0.76 | 0.65 | 99 | 1007.4 |
| 20260506155520 | 47 | 37 | 3.0 | 7.0 | 0.23 | 0.74 | 0.63 | 99 | 1007.4 |
| 20260506154516 | 47 | 42 | 3.0 | 6.0 | 0.23 | 0.71 | 0.60 | 99 | 1007.6 |
| 20260506153551 | 47 | 36 | 3.0 | 6.0 | 0.22 | 0.65 | 0.54 | 99 | 1007.5 |
| 20260506152527 | 47 | 33 | 2.0 | 4.0 | 0.21 | 0.61 | 0.50 | 99 | 1007.8 |
| 20260506151524 | 48 | 38 | 4.0 | 7.0 | 0.22 | 0.58 | 0.47 | 99 | 1007.8 |
| 20260506150519 | 48 | 40 | 3.0 | 7.0 | 0.20 | 0.54 | 0.43 | 99 | 1007.9 |
| 20260506145556 | 48 | 39 | 2.0 | 6.0 | 0.19 | 0.51 | 0.40 | 99 | 1008.3 |
| 20260506144533 | 48 | 49 | 3.0 | 6.0 | 0.18 | 0.48 | 0.37 | 99 | 1008.4 |
| 20260506143529 | 48 | 52 | 2.0 | 4.0 | 0.15 | 0.43 | 0.32 | 99 | 1008.5 |
| 20260506142525 | 48 | 47 | 3.0 | 8.0 | 0.14 | 0.40 | 0.29 | 99 | 1008.4 |
| 20260506141522 | 49 | 26 | 3.0 | 6.0 | 0.12 | 0.36 | 0.25 | 99 | 1008.3 |
| 20260506140518 | 49 | 30 | 4.0 | 7.0 | 0.12 | 0.34 | 0.23 | 99 | 1008.1 |
| 20260506135534 | 50 | 52 | 3.0 | 9.0 | 0.12 | 0.32 | 0.21 | 99 | 1008.0 |
| 20260506134530 | 51 | 40 | 2.0 | 6.0 | 0.12 | 0.30 | 0.19 | 99 | 1008.0 |
| 20260506133526 | 51 | 45 | 3.0 | 7.0 | 0.11 | 0.28 | 0.17 | 99 | 1008.0 |
| 20260506132522 | 51 | 47 | 2.0 | 4.0 | 0.11 | 0.26 | 0.15 | 99 | 1007.9 |
| 20260506131518 | 51 | 22 | 2.0 | 6.0 | 0.10 | 0.24 | 0.13 | 99 | 1008.1 |
| 20260506130534 | 52 | 62 | 4.0 | 8.0 | 0.08 | 0.22 | 0.11 | 99 | 1007.9 |
| 20260506125530 | 52 | 29 | 2.0 | 6.0 | 0.06 | 0.20 | 0.09 | 99 | 1008.3 |
| 20260506124526 | 52 | 41 | 4.0 | 7.0 | 0.04 | 0.18 | 0.07 | 99 | 1008.5 |
| 20260506123522 | 53 | 32 | 2.0 | 4.0 | 0.03 | 0.17 | 0.06 | 99 | 1008.7 |
| 20260506122518 | 53 | 33 | 3.0 | 6.0 | 0.01 | 0.15 | 0.04 | 99 | 1008.8 |
| 20260506121534 | 53 | 32 | 3.0 | 7.0 | 0.00 | 0.14 | 0.03 | 99 | 1008.3 |
| 20260506120529 | 53 | 29 | 4.0 | 9.0 | 0.00 | 0.14 | 0.03 | 99 | 1007.8 |
| 20260506115545 | 53 | 32 | 2.0 | 4.0 | 0.01 | 0.14 | 0.03 | 99 | 1008.0 |
| 20260506114523 | 54 | 40 | 1.0 | 2.0 | 0.01 | 0.14 | 0.03 | 99 | 1008.1 |
| 20260506113538 | 54 | 280 | 0.0 | 1.0 | 0.01 | 0.14 | 0.03 | 99 | 1008.2 |
| 20260506112534 | 54 | 40 | 3.0 | 7.0 | 0.01 | 0.14 | 0.03 | 99 | 1007.7 |
| 20260506111530 | 55 | 17 | 2.0 | 7.0 | 0.01 | 0.14 | 0.03 | 99 | 1007.9 |
| 20260506110525 | 55 | 0.0 | 0.0 | 0.01 | 0.14 | 0.03 | 99 | 1008.0 | |
| 20260506105522 | 55 | 141 | 0.0 | 1.0 | 0.00 | 0.13 | 0.02 | 99 | 1007.9 |
| 20260506104517 | 55 | 0.0 | 0.0 | 0.00 | 0.13 | 0.02 | 99 | 1007.5 | |
| 20260506103613 | 55 | 0.0 | 0.0 | 0.00 | 0.13 | 0.02 | 99 | 1007.6 | |
| 20260506102529 | 55 | 0.0 | 0.0 | 0.00 | 0.13 | 0.02 | 99 | 1007.6 | |
| 20260506101548 | 55 | 0.0 | 0.0 | 0.00 | 0.13 | 0.02 | 99 | 1007.3 | |
| 20260506100522 | 55 | 0.0 | 0.0 | 0.00 | 0.13 | 0.02 | 99 | 1007.3 | |
| 20260506095518 | 55 | 0.0 | 0.0 | 0.00 | 0.13 | 0.02 | 99 | 1007.5 | |
| 20260506094534 | 55 | 0.0 | 0.0 | 0.00 | 0.13 | 0.02 | 99 | 1007.4 | |
| 20260506093530 | 54 | 0.0 | 0.0 | 0.00 | 0.13 | 0.02 | 99 | 1007.2 | |
| 20260506092546 | 55 | 0.0 | 0.0 | 0.00 | 0.13 | 0.02 | 99 | 1007.4 | |
| 20260506091522 | 55 | 0.0 | 0.0 | 0.00 | 0.13 | 0.02 | 99 | 1007.6 | |
| 20260506090518 | 55 | 0.0 | 0.0 | 0.00 | 0.13 | 0.02 | 99 | 1007.5 | |
| 20260506085554 | 55 | 0.0 | 0.0 | 0.00 | 0.13 | 0.02 | 99 | 1007.6 | |
| 20260506084530 | 55 | 0.0 | 0.0 | 0.00 | 0.13 | 0.02 | 99 | 1007.9 | |
| 20260506083527 | 55 | 0.0 | 0.0 | 0.00 | 0.13 | 0.02 | 99 | 1008.0 | |
| 20260506082523 | 55 | 0.0 | 0.0 | 0.00 | 0.13 | 0.02 | 99 | 1008.2 | |
| 20260506081519 | 55 | 0.0 | 0.0 | 0.00 | 0.13 | 0.02 | 99 | 1007.9 | |
| 20260506080535 | 55 | 0.0 | 0.0 | 0.00 | 0.13 | 0.02 | 99 | 1008.1 | |
| 20260506073523 | 55 | 0.0 | 0.0 | 0.00 | 0.13 | 0.02 | 99 | 1008.2 | |
| 20260506072520 | 56 | 0.0 | 0.0 | 0.00 | 0.13 | 0.02 | 99 | 1008.1 | |
| 20260506071516 | 56 | 0.0 | 0.0 | 0.00 | 0.13 | 0.02 | 99 | 1008.3 | |
| 20260506070531 | 56 | 0.0 | 0.0 | 0.00 | 0.13 | 0.02 | 99 | 1008.3 | |
| 20260506062516 | 56 | 0.0 | 0.0 | 0.00 | 0.13 | 0.02 | 99 | 1008.4 | |
| 20260506061532 | 56 | 0.0 | 0.0 | 0.00 | 0.13 | 0.02 | 99 | 1008.3 | |
| 20260506060528 | 56 | 0.0 | 0.0 | 0.00 | 0.13 | 0.02 | 99 | 1008.3 | |
| 20260506050524 | 57 | 0.0 | 0.0 | 0.02 | 0.13 | 0.02 | 99 | 1009.0 | |
| 20260506044540 | 57 | 0.0 | 0.0 | 0.03 | 0.13 | 0.02 | 99 | 1009.1 | |
| 20260506043535 | 57 | 0.0 | 0.0 | 0.03 | 0.13 | 0.02 | 99 | 1008.7 | |
| 20260506042551 | 58 | 0.0 | 0.0 | 0.03 | 0.13 | 0.02 | 99 | 1008.7 | |
| 20260506041528 | 57 | 316 | 1.0 | 3.0 | 0.02 | 0.12 | 0.01 | 99 | 1008.6 |
| 20260506040545 | 58 | 0.0 | 0.0 | 0.01 | 0.11 | 0.00 | 99 | 1008.6 | |
| 20260506035521 | 58 | 0.0 | 0.0 | 0.00 | 0.10 | 0.10 | 99 | 1008.3 | |
| 20260506034517 | 57 | 0.0 | 0.0 | 0.00 | 0.10 | 0.10 | 99 | 1008.4 | |
| 20260506033532 | 58 | 285 | 0.0 | 1.0 | 0.00 | 0.10 | 0.10 | 98 | 1008.3 |
| 20260506032529 | 58 | 0.0 | 0.0 | 0.00 | 0.10 | 0.10 | 97 | 1008.1 | |
| 20260506031524 | 58 | 0.0 | 0.0 | 0.00 | 0.10 | 0.10 | 97 | 1008.0 | |
| 20260506030540 | 58 | 0.0 | 0.0 | 0.00 | 0.10 | 0.10 | 97 | 1007.9 | |
| 20260506025516 | 58 | 0.0 | 0.0 | 0.00 | 0.10 | 0.10 | 97 | 1007.9 | |
| 20260506024532 | 58 | 0.0 | 0.0 | 0.00 | 0.10 | 0.10 | 97 | 1007.8 | |
| 20260506023529 | 58 | 0.0 | 0.0 | 0.00 | 0.10 | 0.10 | 97 | 1007.8 | |
| 20260506022526 | 58 | 0.0 | 0.0 | 0.00 | 0.10 | 0.10 | 97 | 1007.8 | |
| 20260506021521 | 58 | 0.0 | 0.0 | 0.00 | 0.10 | 0.10 | 97 | 1007.9 | |
| 20260506020516 | 58 | 0.0 | 0.0 | 0.00 | 0.10 | 0.10 | 97 | 1007.7 | |
| 20260506015552 | 58 | 0.0 | 0.0 | 0.00 | 0.10 | 0.10 | 97 | 1007.7 | |
| 20260506014548 | 57 | 0.0 | 0.0 | 0.00 | 0.10 | 0.10 | 96 | 1007.7 | |
| 20260506013524 | 58 | 0.0 | 0.0 | 0.00 | 0.10 | 0.10 | 96 | 1007.6 | |
| 20260506012521 | 58 | 0.0 | 0.0 | 0.00 | 0.10 | 0.10 | 95 | 1007.4 | |
| 20260506011517 | 57 | 0.0 | 0.0 | 0.00 | 0.10 | 0.10 | 98 | 1007.5 | |
| 20260506010533 | 58 | 0.0 | 0.0 | 0.00 | 0.10 | 0.10 | 97 | 1007.1 |